Location: *
(37.5724°S, 58.0067°E)
Time: 11:47:05
(UTC+00:00)

USA 229 DEB - Pass Details

Date: 03 December 2021
Orbit: 943 x 1269 km, 63.4° (Epoch: 14 January)

Event Time Altitude Azimuth Distance (km) Brightness Sun altitude
Rises 17:41:02 0° 313° (NW) 4,211 6.7 -22.1°
Reaches altitude 10° 17:43:58 10° 308° (NW) 3,233 6.2 -22.4°
Maximum altitude 17:51:35 53° 232° (SW) 1,475 4.7 -23.2°
Drops below altitude 10° 17:58:50 10° 156° (SSE) 3,076 6.5 -24.0°
Sets 18:01:34 0° 151° (SSE) 3,993 7.1 -24.3°
